Dakar, Senegal

11:13 PM GMT on December 19, 2014 (GMT +0000)
Ngor Almadies | Change Station
CLOSE
Current Station
Personal Weather Station
Location: Dakar, DAKAR
Elevation: 46 ft
Nearby Weather Stations

Elev 46 ft 14.74 °N, 17.51 °W | Updated 1 second ago

Clear
Clear
71.7 °F
Feels Like 73 °F
N
3.0
Wind Variable Wind from NE
Gusts 7.0 mph

Today
High -- | Low -- °F
--% Chance of Precip.
Yesterday
High -- | Low -- °F
Precip. -- in
7:29 AM 6:44 PM
Waning Crescent, 6% visible
Pressure 29.98 in
Visibility 3.7 miles
Clouds
Heat Index 73 °F
Dew Point 64 °F
Humidity 76%
Rainfall 0.00 in
Snow Depth Not available.
UV Not available.
Pollen Not available.
Air Quality Not available.
Flu Activity Not available.
METAR GOOY 192300Z 02008KT 6000 NSC 23/17 Q1015 WS RWY36 NOSIG

More Conditions Fewer Conditions

Pressure 29.98 in
Visibility 3.7 miles
Clouds
Heat Index 73 °F
Dew Point 64 °F
Humidity 76%
Rainfall 0.00 in
Snow Depth Not available.
UV Not available.
Pollen Not available.
Air Quality Not available.
Flu Activity Not available.
METAR GOOY 192300Z 02008KT 6000 NSC 23/17 Q1015 WS RWY36 NOSIG

More Conditions Fewer Conditions

10-Day Weather Forecast

Almanac

Astronomy

Dec. 19, 2014 Rise Set
Actual Time
Civil Twilight
Nautical Twilight
Astronomical Twilight
Moon
Length of Visible Light
Length of Day
Tomorrow will be .
, % of the Moon is Illuminated

Today's Extremes

Country Highs Country Lows

Community

WunderPhotos

Upload Photos

1,779,073 photos uploaded!

WunderBlogs® & News

Nearby

Air Quality

  Air Quality AQ Index Pollutant
Not available.

Snow Depth

Station Depth Elevation

Earthquake Activity

City Distance Mag. Time & Date
Minimum magnitude displayed is 2.5.

Coastal Water Temperatures

Place Temperature

Nearby Weather Stations